| time (UTC) | temp F | wind direction | speed MPH | gust MPH | rain 1hr in | rain 24hr in | rain mn in | humidity % | barometer mb |
| 20260510203007 | 78 | 107 | 13.0 | 23.0 | 0.00 | 0.00 | 0.00 | 25 | 1020.1 |
| 20260510201504 | 79 | 119 | 11.0 | 19.0 | 0.00 | 0.00 | 0.00 | 24 | 1020.1 |
| 20260510200002 | 78 | 105 | 12.0 | 17.0 | 0.00 | 0.00 | 0.00 | 23 | 1020.3 |
| 20260510194609 | 78 | 84 | 10.0 | 18.0 | 0.00 | 0.00 | 0.00 | 24 | 1020.3 |
| 20260510193113 | 78 | 79 | 12.0 | 20.0 | 0.00 | 0.00 | 0.00 | 25 | 1020.4 |
| 20260510191552 | 77 | 101 | 8.0 | 17.0 | 0.00 | 0.00 | 0.00 | 24 | 1020.6 |
| 20260510190054 | 77 | 90 | 14.0 | 19.0 | 0.00 | 0.00 | 0.00 | 26 | 1020.6 |
| 20260510184551 | 77 | 108 | 11.0 | 19.0 | 0.00 | 0.00 | 0.00 | 24 | 1020.7 |
| 20260510183041 | 76 | 91 | 10.0 | 18.0 | 0.00 | 0.00 | 0.00 | 24 | 1020.7 |
| 20260510181539 | 75 | 103 | 13.0 | 19.0 | 0.00 | 0.00 | 0.00 | 26 | 1020.7 |
| 20260510180035 | 75 | 95 | 10.0 | 19.0 | 0.00 | 0.00 | 0.00 | 26 | 1020.7 |
| 20260510174530 | 74 | 87 | 15.0 | 20.0 | 0.00 | 0.00 | 0.00 | 27 | 1020.7 |
| 20260510173025 | 74 | 99 | 14.0 | 18.0 | 0.00 | 0.00 | 0.00 | 27 | 1020.8 |
| 20260510171521 | 73 | 87 | 15.0 | 21.0 | 0.00 | 0.00 | 0.00 | 27 | 1020.7 |
| 20260510170017 | 72 | 69 | 11.0 | 18.0 | 0.00 | 0.00 | 0.00 | 28 | 1020.8 |
| 20260510164513 | 71 | 94 | 12.0 | 16.0 | 0.00 | 0.00 | 0.00 | 28 | 1020.5 |
| 20260510163011 | 70 | 113 | 12.0 | 17.0 | 0.00 | 0.00 | 0.00 | 28 | 1020.4 |
| 20260510161520 | 69 | 108 | 8.0 | 14.0 | 0.00 | 0.00 | 0.00 | 30 | 1020.1 |
| 20260510160005 | 70 | 95 | 4.0 | 13.0 | 0.00 | 0.00 | 0.00 | 29 | 1020.0 |
| 20260510154504 | 69 | 85 | 7.0 | 13.0 | 0.00 | 0.00 | 0.00 | 29 | 1019.8 |
| 20260510153005 | 67 | 86 | 12.0 | 17.0 | 0.00 | 0.00 | 0.00 | 31 | 1019.7 |
| 20260510151509 | 67 | 118 | 14.0 | 22.0 | 0.00 | 0.00 | 0.00 | 31 | 1019.7 |
| 20260510150002 | 68 | 116 | 10.0 | 15.0 | 0.00 | 0.00 | 0.00 | 30 | 1020.0 |
| 20260510144620 | 67 | 86 | 6.0 | 11.0 | 0.00 | 0.00 | 0.00 | 30 | 1020.9 |
| 20260510143059 | 67 | 72 | 8.0 | 13.0 | 0.00 | 0.00 | 0.00 | 29 | 1021.6 |
| 20260510141606 | 68 | 45 | 10.0 | 19.0 | 0.00 | 0.00 | 0.00 | 28 | 1021.5 |
| 20260510140059 | 69 | 48 | 13.0 | 20.0 | 0.00 | 0.00 | 0.00 | 26 | 1021.4 |
| 20260510134605 | 68 | 52 | 12.0 | 18.0 | 0.00 | 0.00 | 0.00 | 26 | 1021.1 |
| 20260510133050 | 67 | 58 | 14.0 | 20.0 | 0.00 | 0.00 | 0.00 | 26 | 1020.2 |
| 20260510131549 | 67 | 46 | 8.0 | 13.0 | 0.00 | 0.00 | 0.00 | 25 | 1019.9 |
| 20260510130047 | 67 | 56 | 8.0 | 11.0 | 0.00 | 0.00 | 0.00 | 25 | 1019.9 |
| 20260510124545 | 63 | 62 | 0.0 | 0.0 | 0.00 | 0.00 | 0.00 | 29 | 1019.5 |
| 20260510123044 | 62 | 46 | 0.0 | 5.0 | 0.00 | 0.00 | 0.00 | 28 | 1019.1 |
| 20260510121542 | 60 | 43 | 6.0 | 13.0 | 0.00 | 0.00 | 0.00 | 26 | 1018.6 |
| 20260510120037 | 60 | 17 | 10.0 | 12.0 | 0.00 | 0.00 | 0.00 | 25 | 1018.4 |
| 20260510114559 | 59 | 336 | 5.0 | 10.0 | 0.00 | 0.00 | 0.00 | 25 | 1018.3 |
| 20260510113045 | 59 | 74 | 0.0 | 3.0 | 0.00 | 0.00 | 0.00 | 26 | 1017.6 |
| 20260510111533 | 59 | 36 | 3.0 | 6.0 | 0.00 | 0.00 | 0.00 | 25 | 1017.4 |
| 20260510110038 | 60 | 301 | 0.0 | 2.0 | 0.00 | 0.00 | 0.00 | 24 | 1016.9 |
| 20260510104527 | 62 | 53 | 0.0 | 4.0 | 0.00 | 0.00 | 0.00 | 21 | 1016.7 |
| 20260510103024 | 63 | 350 | 0.0 | 0.0 | 0.00 | 0.00 | 0.00 | 20 | 1016.6 |
| 20260510101523 | 63 | 304 | 0.0 | 2.0 | 0.00 | 0.00 | 0.00 | 21 | 1016.3 |
| 20260510100030 | 60 | 301 | 1.0 | 4.0 | 0.00 | 0.00 | 0.00 | 24 | 1016.1 |
| 20260510094517 | 57 | 105 | 0.0 | 1.0 | 0.00 | 0.00 | 0.00 | 30 | 1015.9 |
| 20260510093014 | 58 | 155 | 0.0 | 0.0 | 0.00 | 0.00 | 0.00 | 28 | 1015.5 |
| 20260510091512 | 58 | 138 | 0.0 | 0.0 | 0.00 | 0.00 | 0.00 | 28 | 1015.6 |
| 20260510090011 | 57 | 74 | 0.0 | 2.0 | 0.00 | 0.00 | 0.00 | 27 | 1015.3 |
| 20260510084507 | 61 | 64 | 0.0 | 0.0 | 0.00 | 0.00 | 0.00 | 26 | 1015.0 |
| 20260510083013 | 60 | 45 | 0.0 | 0.0 | 0.00 | 0.00 | 0.00 | 26 | 1014.8 |
| 20260510081600 | 63 | 267 | 0.0 | 0.0 | 0.00 | 0.00 | 0.00 | 24 | 1014.9 |
| 20260510080101 | 64 | 146 | 0.0 | 2.0 | 0.00 | 0.00 | 0.00 | 23 | 1014.9 |
| 20260510074605 | 63 | 133 | 1.0 | 3.0 | 0.00 | 0.00 | 0.00 | 23 | 1014.9 |
| 20260510073050 | 65 | 152 | 0.0 | 5.0 | 0.00 | 0.00 | 0.00 | 21 | 1014.9 |
| 20260510071549 | 68 | 94 | 1.0 | 6.0 | 0.00 | 0.00 | 0.00 | 19 | 1014.9 |
| 20260510070103 | 67 | 107 | 2.0 | 4.0 | 0.00 | 0.00 | 0.00 | 20 | 1015.1 |
| 20260510064549 | 67 | 105 | 1.0 | 5.0 | 0.00 | 0.00 | 0.00 | 20 | 1015.0 |
| 20260510063043 | 69 | 36 | 1.0 | 9.0 | 0.00 | 0.00 | 0.00 | 18 | 1015.3 |
| 20260510061539 | 68 | 113 | 0.0 | 1.0 | 0.00 | 0.00 | 0.00 | 20 | 1014.9 |
| 20260510060040 | 69 | 23 | 0.0 | 0.0 | 0.00 | 0.00 | 0.00 | 19 | 1015.0 |
| 20260510054535 | 71 | 277 | 0.0 | 0.0 | 0.00 | 0.00 | 0.00 | 17 | 1015.1 |
| 20260510053034 | 72 | 82 | 0.0 | 0.0 | 0.00 | 0.00 | 0.00 | 17 | 1015.0 |
| 20260510051535 | 73 | 356 | 0.0 | 0.0 | 0.00 | 0.00 | 0.00 | 16 | 1015.1 |
| 20260510050035 | 69 | 185 | 0.0 | 0.0 | 0.00 | 0.00 | 0.00 | 20 | 1015.1 |
| 20260510044532 | 68 | 56 | 0.0 | 1.0 | 0.00 | 0.00 | 0.00 | 20 | 1014.9 |
| 20260510043032 | 70 | 112 | 0.0 | 0.0 | 0.00 | 0.00 | 0.00 | 19 | 1014.9 |
| 20260510041545 | 70 | 85 | 0.0 | 0.0 | 0.00 | 0.00 | 0.00 | 18 | 1014.7 |
| 20260510040033 | 70 | 358 | 0.0 | 0.0 | 0.00 | 0.00 | 0.00 | 17 | 1014.7 |
| 20260510034530 | 72 | 197 | 0.0 | 0.0 | 0.00 | 0.00 | 0.00 | 16 | 1014.6 |
| 20260510033030 | 73 | 186 | 0.0 | 1.0 | 0.00 | 0.00 | 0.00 | 15 | 1014.5 |
| 20260510031533 | 74 | 230 | 0.0 | 0.0 | 0.00 | 0.00 | 0.00 | 15 | 1014.2 |
| 20260510030029 | 75 | 188 | 0.0 | 5.0 | 0.00 | 0.00 | 0.00 | 14 | 1014.0 |
| 20260510024530 | 76 | 159 | 3.0 | 10.0 | 0.00 | 0.00 | 0.00 | 13 | 1013.6 |
| 20260510023028 | 78 | 191 | 4.0 | 10.0 | 0.00 | 0.00 | 0.00 | 12 | 1013.3 |
| 20260510021535 | 78 | 212 | 3.0 | 11.0 | 0.00 | 0.00 | 0.00 | 12 | 1013.0 |
| 20260510020031 | 80 | 247 | 5.0 | 13.0 | 0.00 | 0.00 | 0.00 | 11 | 1012.9 |
| 20260510014531 | 79 | 247 | 3.0 | 9.0 | 0.00 | 0.00 | 0.00 | 11 | 1012.8 |
| 20260510013029 | 79 | 214 | 1.0 | 7.0 | 0.00 | 0.00 | 0.00 | 11 | 1012.7 |
| 20260510011526 | 80 | 222 | 1.0 | 11.0 | 0.00 | 0.00 | 0.00 | 11 | 1012.6 |
| 20260510010025 | 82 | 218 | 7.0 | 20.0 | 0.00 | 0.00 | 0.00 | 10 | 1012.5 |
| 20260510004524 | 82 | 250 | 9.0 | 14.0 | 0.00 | 0.00 | 0.00 | 10 | 1012.6 |
| 20260510003025 | 82 | 235 | 6.0 | 23.0 | 0.00 | 0.00 | 0.00 | 10 | 1012.6 |
| 20260510001535 | 83 | 228 | 9.0 | 13.0 | 0.00 | 0.00 | 0.00 | 9 | 1012.4 |
| 20260510000024 | 84 | 225 | 7.0 | 13.0 | 0.00 | 0.00 | 0.00 | 9 | 1012.4 |
| 20260509234604 | 84 | 278 | 0.0 | 6.0 | 0.00 | 0.00 | 0.00 | 9 | 1012.4 |
| 20260509233058 | 85 | 242 | 4.0 | 11.0 | 0.00 | 0.00 | 0.00 | 9 | 1012.6 |
| 20260509231552 | 85 | 260 | 0.0 | 7.0 | 0.00 | 0.00 | 0.00 | 9 | 1012.7 |
| 20260509224601 | 86 | 247 | 1.0 | 7.0 | 0.00 | 0.00 | 0.00 | 9 | 1012.9 |
| 20260509223028 | 86 | 208 | 6.0 | 13.0 | 0.00 | 0.00 | 0.00 | 8 | 1013.2 |
| 20260509221624 | 87 | 206 | 3.0 | 14.0 | 0.00 | 0.00 | 0.00 | 8 | 1013.3 |
| 20260509214504 | 86 | 202 | 4.0 | 15.0 | 0.00 | 0.00 | 0.00 | 8 | 1013.7 |
| 20260509213132 | 87 | 218 | 6.0 | 14.0 | 0.00 | 0.00 | 0.00 | 8 | 1014.0 |
| 20260509211554 | 87 | 280 | 7.0 | 12.0 | 0.00 | 0.00 | 0.00 | 8 | 1014.3 |
| 20260509204557 | 86 | 193 | 3.0 | 17.0 | 0.00 | 0.00 | 0.00 | 9 | 1014.5 |